SCP
0 0 0 0 0 0 0 0 0 0 0 0 0 0 -0 -0 0 0 0 0 0 0 0 0 0 0 0 0 0 0 0 0 0 0 0 0 0 0 0 0 0 0 -0 -0
0 0 0 0 0 0 0 0 0 0 0 0 0 0 0 0 0 0 0 0 0 0 0 0 0 0 0 0 0 0 0 0 0 0 0 0 0 0 0 -0 -0 -0 -0 0
0 0 0 0 0 0 0 0 0 0 0 0 0 0 0 0 0 0 0 0 0 0 0 0 0 0 0 0 0 0 0 0 0 0 0 0 0 0 -0 -0 -0 -0 0 0
0 0 0 0 0 0 0 0 0 0 0 0 0 0 0 0 0 0 0 0 0 0 0 0 0 0 0 0 0 0 0 0 0 0 0 0 0 0 0 -0 -0 -0 -0 -0
0 0 0 0 0 0 0 0 0 0 0 0 0 0 0 0 0 0 0 0 0 0 0 0 0 0 0 0 0 0 0 0 0 0 0 0 0 0 0 -0 -0 -0 -0 0
0 0 0 0 0 0 0 0 0 0 0 0 0 0 0 0 0 0 0 0 0 0 0 0 0 0 0 0 0 0 0 0 0 0 0 0 0 0 0 -0 -0 -0 -0 -0
0 0 0 0 0 0 0 0 0 0 0 0 0 0 0 0 0 0 0 0 0 0 0 0 0 0 0 0 0 0 0 0 0 0 0 0 0 0 0 -0 -0 -0 -0 -0
0 0 0 0 0 0 0 0 0 0 0 0 0 0 0 0 0 0 0 0 0 0 0 0 0 0 0 0 0 0 0 0 0 0 0 0 0 0 0 -0 -0 0 -0 -0
0 0 0 0 0 0 0 0 0 0 0 0 0 0 0 0 0 0 0 0 0 0 0 0 0 0 0 0 0 0 0 0 0 0 0 0 0 0 0 0 0 0 0 -0
0 0 0 0 0 0 0 0 0 0 0 0 0 0 0 0 0 0 0 0 0 0 0 0 0 0 0 0 0 0 0 0 0 0 0 0 0 0 0 0 0 0 0 0
0 0 0 0 0 0 0 0 0 0 0 0 0 0 0 0 0 0 0 0 0 0 0 0 0 0 0 0 0 0 0 0 0 0 0 0 0 0 0 0 -0 -0 -0 -0
0 0 0 0 0 0 0 0 0 0 0 0 0 0 0 0 0 0 0 0 0 0 0 0 0 0 0 0 0 0 0 0 0 0 0 0 0 0 0 0 -0 -0 -0 -0
0 0 0 0 0 0 0 0 0 0 0 0 0 0 0 0 0 0 0 0 0 0 0 0 0 0 -0 -0 0 0 0 0 0 0 0 0 0 0 0 0 -0 0 0 -0
0 0 0 0 0 0 0 0 0 0 0 0 0 0 0 0 0 0 0 0 0 0 0 0 0 0 -0 -0 0 0 0 0 0 0 0 0 0 0 0 0 0 0 0 0
0 0 0 0 0 0 0 0 0 0 0 0 0 0 0 0 0 0 0 0 0 0 0 0 0 -0 -0 -0 -0 -0 -0 0 0 0 0 0 0 0 0 0 0 0 0 0
0 0 0 0 0 0 0 0 0 0 0 0 0 0 0 0 0 0 0 0 0 0 -0 0 -0 -0 -0 -0 -0 -0 -0 0 0 0 0 0 0 0 0 0 0 0 0 0
0 0 0 0 0 0 0 0 0 0 0 0 0 0 0 0 0 0 0 0 0 0 0 -0 -0 -0 -0 0 0 -0 -0 0 0 0 0 0 0 0 0 0 0 0 0 0
0 0 0 0 0 0 0 0 0 0 0 0 0 0 0 0 0 0 0 0 0 0 0 -0 -0 -0 0 0 0 0 0 0 0 0 0 0 0 0 0 0 0 0 0 0
0 0 0 0 0 0 0 0 0 0 0 0 0 0 0 0 0 0 0 0 0 0 -0 -0 -0 -0 0 -0 0 0 0 0 0 0 0 0 0 0 0 0 0 0 0 0
0 0 0 0 0 0 0 0 0 0 0 0 0 0 0 0 0 0 0 0 -0 -0 -0 -0 -0 0 0 -0 0 0 0 0 0 0 0 0 0 0 0 0 0 0 0 0
0 0 0 0 0 0 0 0 0 0 0 0 0 0 0 0 0 0 0 0 0 -0 -0 0 0 0 -0 -0 0 0 0 0 0 0 0 0 0 0 0 0 0 0 0 0
0 0 0 0 0 0 0 0 0 0 0 0 0 0 0 0 0 0 0 0 0 0 0 -0 -0 0 0 0 0 0 0 0 0 0 0 0 0 0 0 0 0 0 0 0
0 0 0 0 0 0 0 0 0 0 0 0 0 0 0 -0 0 0 0 0 0 0 0 0 -0 -0 -0 0 0 0 0 0 0 0 0 0 0 0 0 0 0 0 0 0
0 0 0 0 0 0 0 0 0 0 0 0 0 0 -0 0 0 0 0 0 0 0 0 0 0 -0 -0 0 0 0 0 0 0 0 0 0 0 0 0 0 0 0 0 0
0 0 0 0 0 0 0 0 0 0 0 0 0 0 0 -0 0 0 0 0 0 0 0 0 -0 -0 0 0 0 0 0 0 0 0 0 0 0 0 0 0 0 0 0 0
0 0 0 0 0 0 0 0 0 0 0 0 0 -0 -0 -0 -0 -0 -0 0 0 0 0 0 0 0 0 0 0 0 0 0 0 0 0 0 0 0 0 0 0 0 0 0
0 0 0 0 0 0 0 -0 0 -0 0 0 0 -0 -0 -0 -0 -0 0 0 0 0 0 0 0 0 0 0 0 0 0 0 0 0 0 0 0 0 0 0 0 0 0 0
Wind_Speed_500mb
7 8 4 7 14 12 16 10 11 5 5 0 10 18 30 32 49 56 58 59 63 56 49 40 47 45 42 43 40 44 44 45 46 49 49 52 54 54 48 46 44 45 49 57
8 6 6 10 22 17 10 9 13 7 7 5 18 21 29 38 50 49 50 50 51 49 34 37 38 38 40 39 36 34 37 40 42 45 47 50 49 48 48 46 47 48 53 60
8 9 13 13 8 10 7 3 8 8 5 9 11 28 30 35 37 32 34 37 40 41 38 36 38 38 38 36 37 38 38 40 42 43 45 46 43 44 47 48 46 49 52 56
5 8 4 8 6 4 9 6 7 7 5 3 13 19 10 21 18 23 30 30 36 35 33 34 32 31 32 36 37 35 37 40 43 43 42 40 41 43 44 46 50 52 51 54
4 5 13 2 2 7 6 7 15 11 8 4 12 8 9 19 17 24 22 27 28 27 29 29 32 34 35 35 34 36 42 45 45 42 41 40 41 40 40 43 48 52 57 57
6 5 9 5 7 10 10 8 28 19 6 3 5 4 4 15 14 18 19 22 27 25 25 29 32 33 34 38 42 48 46 43 40 41 42 41 38 37 38 43 47 51 56 60
5 5 15 10 11 13 5 8 30 20 10 13 9 9 8 6 10 15 17 20 20 17 23 26 26 27 34 37 43 41 39 37 36 39 43 39 36 38 39 44 48 53 56 61
6 3 15 18 9 12 9 22 18 14 13 13 11 9 7 6 9 8 13 14 14 15 20 25 25 27 33 37 37 37 37 36 36 38 42 42 41 42 45 49 53 58 61 63
17 11 5 25 6 13 17 9 9 10 10 8 9 7 15 8 7 8 14 11 10 13 15 18 22 27 29 32 33 36 36 35 37 39 41 48 48 49 52 55 59 62 65 67
3 7 15 20 21 21 14 10 9 7 5 7 6 14 18 9 6 1 6 5 8 11 14 16 21 26 28 30 31 32 31 33 34 38 41 45 48 51 54 58 61 63 65 68
4 4 11 27 33 26 18 13 9 4 7 12 15 16 10 10 5 1 3 3 6 10 13 18 22 25 26 26 26 27 28 29 32 36 39 41 45 48 52 53 53 55 58 61
11 21 13 9 44 33 22 13 9 10 14 15 17 17 14 10 8 4 6 3 5 8 14 18 21 23 24 26 26 25 26 31 34 35 37 39 40 40 42 43 43 46 53 59
4 9 26 9 26 31 22 15 12 16 18 21 20 14 15 8 8 7 8 4 5 9 14 16 18 22 24 25 25 25 27 30 33 36 39 39 38 37 38 39 44 49 51 54
17 16 17 27 18 27 18 15 15 18 21 20 18 15 14 12 13 11 9 6 7 8 11 15 17 21 24 24 24 25 27 31 34 36 36 36 39 41 42 45 46 47 50 53
26 24 11 22 19 24 21 18 14 14 21 19 18 15 14 15 16 13 11 9 8 8 11 15 16 21 22 22 21 23 27 32 32 34 36 38 39 42 45 47 50 53 52 55
27 17 11 18 23 24 19 21 15 14 18 20 22 19 19 19 17 17 16 12 8 8 11 14 16 20 19 21 23 24 26 28 29 32 34 39 42 43 45 48 52 55 59 63
30 24 25 24 23 23 21 16 15 12 19 23 22 23 24 21 21 19 14 11 7 10 12 14 16 18 17 20 22 23 24 25 27 30 35 39 41 45 48 50 53 55 58 60
28 18 16 13 20 24 22 16 14 15 20 24 25 25 22 21 20 18 13 11 8 9 13 15 16 16 16 21 22 21 21 22 26 31 34 37 41 44 47 51 54 56 56 57
32 20 14 12 17 17 15 17 18 20 25 25 26 24 21 21 19 15 13 9 7 8 11 13 13 14 16 20 18 17 19 22 26 30 33 35 39 42 46 49 52 55 57 61
26 18 13 15 17 14 16 22 24 28 29 29 29 27 27 24 19 14 11 9 9 9 10 11 11 12 17 17 14 16 20 23 26 29 31 34 38 41 43 46 50 53 57 61
22 18 15 14 18 20 17 26 29 31 33 29 25 26 27 25 22 17 14 9 7 8 9 10 11 13 15 13 13 17 21 23 26 27 29 33 36 38 42 45 48 51 55 58
19 18 17 19 21 25 30 30 30 30 30 30 29 28 28 27 24 20 16 10 7 6 8 9 10 11 10 10 14 18 20 22 23 25 27 30 34 37 41 43 45 47 50 54
20 21 22 24 26 30 33 33 31 28 28 31 32 30 25 20 17 15 11 9 9 8 8 8 7 7 7 9 13 15 18 19 20 21 24 29 34 39 42 44 45 46 47 50
25 25 26 29 32 34 34 34 33 29 27 28 27 24 23 23 20 17 13 11 11 11 9 7 6 5 5 8 10 13 16 16 17 18 22 28 33 37 39 41 44 48 49 50
29 27 31 33 35 34 33 34 34 34 35 35 33 31 27 23 19 16 15 15 15 13 10 8 6 4 3 4 6 10 12 13 13 15 19 25 29 32 36 39 41 44 47 50
31 31 32 33 33 34 34 36 34 33 35 37 37 34 30 28 26 21 18 18 18 16 13 11 8 6 4 2 2 6 9 9 10 12 15 20 24 28 32 34 37 41 44 47
29 30 31 33 33 36 35 34 35 34 35 36 33 33 32 30 27 24 23 23 21 19 17 14 12 9 6 5 2 0 5 6 7 9 11 15 19 23 26 30 34 38 42 43
Wind_Direction_500mb
251 233 229 236 244 221 203 199 188 203 271 209 318 343 341 352 2 3 360 356 356 351 1 0 355 356 357 1 8 8 12 15 15 12 14 13 18 19 24 27 31 36 38 41
303 55 350 259 249 228 201 223 251 211 252 131 327 358 8 8 8 4 6 11 14 24 21 4 4 1 360 2 9 11 13 11 10 10 8 12 14 19 24 29 32 38 42 43
260 358 315 292 257 206 156 162 154 210 124 358 326 1 2 11 7 13 12 4 11 10 4 8 6 5 9 15 7 11 14 15 13 11 9 12 16 20 24 29 32 32 38 40
264 12 357 248 328 195 146 152 143 107 126 276 319 340 54 17 19 6 358 356 8 8 1 4 8 12 7 11 15 14 13 12 14 14 14 17 18 21 23 27 32 37 38 38
137 222 293 322 195 142 159 258 178 174 193 285 332 352 160 5 2 357 356 356 3 352 359 8 17 17 15 19 21 22 24 23 20 18 17 16 18 20 26 29 33 35 34 34
80 142 242 234 151 126 128 274 184 189 229 255 346 2 226 340 336 344 355 0 350 355 9 16 22 24 33 40 36 32 27 23 20 21 21 19 21 25 31 35 35 35 34 33
136 238 285 229 156 135 121 244 180 198 236 213 207 221 291 298 312 327 346 340 355 3 24 31 32 31 35 31 29 22 15 15 20 22 23 24 27 32 36 39 37 35 34 33
144 180 280 161 121 177 169 144 186 206 226 218 239 248 257 222 308 324 355 10 24 36 38 41 42 24 24 19 16 10 9 14 19 21 28 32 32 36 38 38 36 34 32 32
186 212 222 188 221 181 171 165 198 224 223 223 237 238 189 234 309 3 13 34 34 26 25 29 24 16 11 12 5 1 2 12 17 22 28 30 33 35 36 35 33 31 30 27
108 208 203 198 194 190 190 204 210 235 195 217 206 186 189 222 240 107 17 37 15 8 12 26 22 13 9 7 2 356 3 12 16 22 24 25 28 31 31 32 30 28 26 25
250 245 208 229 216 206 206 214 204 176 156 161 168 174 213 202 223 289 68 42 3 2 17 18 18 12 9 8 2 1 10 17 22 25 28 26 27 29 31 31 27 26 26 24
226 207 191 228 217 208 204 213 208 180 185 188 194 190 199 205 227 173 115 81 7 28 28 26 26 27 22 19 15 12 18 27 29 30 32 32 32 31 32 32 31 32 31 28
289 220 206 223 181 198 203 202 200 186 193 189 187 206 191 207 206 161 129 130 92 46 37 29 27 30 28 22 19 22 28 31 32 35 35 34 34 36 41 39 34 34 32 29
228 186 170 181 194 198 200 190 193 184 185 192 190 195 197 194 179 150 148 143 91 50 32 40 35 38 31 24 21 27 33 36 36 36 36 36 36 35 35 35 35 37 36 32
196 200 201 191 188 188 192 193 186 202 193 188 193 195 182 177 159 149 151 123 102 69 58 50 46 48 39 32 29 33 38 39 36 38 40 38 37 36 35 33 32 32 34 35
192 205 194 186 182 188 196 191 209 205 210 204 182 173 162 158 150 154 135 117 94 94 77 63 50 50 41 37 35 36 40 41 40 41 41 40 38 37 36 34 33 30 29 28
191 193 198 197 201 201 207 206 203 213 203 179 169 164 160 156 156 150 138 119 111 92 78 65 58 50 45 45 41 38 39 41 43 43 43 40 39 38 37 35 34 32 30 28
219 232 221 234 214 201 196 193 204 205 179 166 162 161 158 156 159 147 134 120 111 95 86 74 63 54 50 52 44 39 41 44 46 45 44 40 39 37 36 35 34 33 31 30
217 230 231 208 194 189 184 186 191 176 166 160 160 155 153 158 158 150 142 133 115 100 87 73 64 60 58 55 44 44 48 49 48 47 44 41 40 38 36 35 34 32 31 30
209 212 199 176 168 175 186 176 171 164 158 158 160 162 159 160 160 157 142 134 134 114 91 79 71 66 62 56 50 55 55 53 50 48 45 43 41 38 36 34 32 31 31 30
195 188 179 170 168 168 165 168 167 164 162 161 163 162 161 157 156 152 143 148 140 114 93 83 76 70 66 62 62 62 59 55 52 49 48 45 41 36 32 30 28 27 28 29
191 187 176 171 172 167 161 166 164 166 162 160 162 169 168 166 163 157 153 153 158 141 117 101 86 76 72 72 70 65 60 57 53 50 47 43 37 32 28 25 24 25 26 26
195 182 177 176 173 170 166 169 167 167 170 170 167 166 169 171 171 166 159 171 162 152 134 113 97 93 89 81 73 67 62 57 52 49 45 40 35 32 30 28 26 25 24 25
195 189 180 179 179 180 178 173 171 169 171 173 167 173 181 182 181 184 179 176 176 171 152 137 128 121 106 85 78 73 65 58 51 46 43 40 36 34 31 29 26 26 26 25
201 197 194 192 191 189 188 185 181 184 185 182 184 184 183 186 185 193 199 192 185 184 169 164 162 159 126 97 85 76 65 55 47 43 40 40 38 34 30 28 27 26 26 25
206 207 205 203 203 199 198 198 198 201 199 194 191 190 192 195 196 198 199 193 194 194 187 183 186 190 182 164 89 82 64 46 39 35 33 36 37 35 30 27 25 25 25 25
211 212 208 208 202 206 212 204 205 210 206 201 199 200 199 201 203 204 199 199 203 205 205 202 200 204 210 218 243 13 72 31 12 18 22 27 33 33 29 26 24 24 24 24
Wind_Speed_850mb
7 8 4 7 14 12 16 10 11 5 5 0 10 18 30 32 49 56 58 59 63 56 49 40 47 45 42 43 40 44 44 45 46 49 49 52 54 54 48 46 44 45 49 57
8 6 6 10 22 17 10 9 13 7 7 5 18 21 29 38 50 49 50 50 51 49 34 37 38 38 40 39 36 34 37 40 42 45 47 50 49 48 48 46 47 48 53 60
8 9 13 13 8 10 7 3 8 8 5 9 11 28 30 35 37 32 34 37 40 41 38 36 38 38 38 36 37 38 38 40 42 43 45 46 43 44 47 48 46 49 52 56
5 8 4 8 6 4 9 6 7 7 5 3 13 19 10 21 18 23 30 30 36 35 33 34 32 31 32 36 37 35 37 40 43 43 42 40 41 43 44 46 50 52 51 54
4 5 13 2 2 7 6 7 15 11 8 4 12 8 9 19 17 24 22 27 28 27 29 29 32 34 35 35 34 36 42 45 45 42 41 40 41 40 40 43 48 52 57 57
6 5 9 5 7 10 10 8 28 19 6 3 5 4 4 15 14 18 19 22 27 25 25 29 32 33 34 38 42 48 46 43 40 41 42 41 38 37 38 43 47 51 56 60
5 5 15 10 11 13 5 8 30 20 10 13 9 9 8 6 10 15 17 20 20 17 23 26 26 27 34 37 43 41 39 37 36 39 43 39 36 38 39 44 48 53 56 61
6 3 15 18 9 12 9 22 18 14 13 13 11 9 7 6 9 8 13 14 14 15 20 25 25 27 33 37 37 37 37 36 36 38 42 42 41 42 45 49 53 58 61 63
17 11 5 25 6 13 17 9 9 10 10 8 9 7 15 8 7 8 14 11 10 13 15 18 22 27 29 32 33 36 36 35 37 39 41 48 48 49 52 55 59 62 65 67
3 7 15 20 21 21 14 10 9 7 5 7 6 14 18 9 6 1 6 5 8 11 14 16 21 26 28 30 31 32 31 33 34 38 41 45 48 51 54 58 61 63 65 68
4 4 11 27 33 26 18 13 9 4 7 12 15 16 10 10 5 1 3 3 6 10 13 18 22 25 26 26 26 27 28 29 32 36 39 41 45 48 52 53 53 55 58 61
11 21 13 9 44 33 22 13 9 10 14 15 17 17 14 10 8 4 6 3 5 8 14 18 21 23 24 26 26 25 26 31 34 35 37 39 40 40 42 43 43 46 53 59
4 9 26 9 26 31 22 15 12 16 18 21 20 14 15 8 8 7 8 4 5 9 14 16 18 22 24 25 25 25 27 30 33 36 39 39 38 37 38 39 44 49 51 54
17 16 17 27 18 27 18 15 15 18 21 20 18 15 14 12 13 11 9 6 7 8 11 15 17 21 24 24 24 25 27 31 34 36 36 36 39 41 42 45 46 47 50 53
26 24 11 22 19 24 21 18 14 14 21 19 18 15 14 15 16 13 11 9 8 8 11 15 16 21 22 22 21 23 27 32 32 34 36 38 39 42 45 47 50 53 52 55
27 17 11 18 23 24 19 21 15 14 18 20 22 19 19 19 17 17 16 12 8 8 11 14 16 20 19 21 23 24 26 28 29 32 34 39 42 43 45 48 52 55 59 63
30 24 25 24 23 23 21 16 15 12 19 23 22 23 24 21 21 19 14 11 7 10 12 14 16 18 17 20 22 23 24 25 27 30 35 39 41 45 48 50 53 55 58 60
28 18 16 13 20 24 22 16 14 15 20 24 25 25 22 21 20 18 13 11 8 9 13 15 16 16 16 21 22 21 21 22 26 31 34 37 41 44 47 51 54 56 56 57
32 20 14 12 17 17 15 17 18 20 25 25 26 24 21 21 19 15 13 9 7 8 11 13 13 14 16 20 18 17 19 22 26 30 33 35 39 42 46 49 52 55 57 61
26 18 13 15 17 14 16 22 24 28 29 29 29 27 27 24 19 14 11 9 9 9 10 11 11 12 17 17 14 16 20 23 26 29 31 34 38 41 43 46 50 53 57 61
22 18 15 14 18 20 17 26 29 31 33 29 25 26 27 25 22 17 14 9 7 8 9 10 11 13 15 13 13 17 21 23 26 27 29 33 36 38 42 45 48 51 55 58
19 18 17 19 21 25 30 30 30 30 30 30 29 28 28 27 24 20 16 10 7 6 8 9 10 11 10 10 14 18 20 22 23 25 27 30 34 37 41 43 45 47 50 54
20 21 22 24 26 30 33 33 31 28 28 31 32 30 25 20 17 15 11 9 9 8 8 8 7 7 7 9 13 15 18 19 20 21 24 29 34 39 42 44 45 46 47 50
25 25 26 29 32 34 34 34 33 29 27 28 27 24 23 23 20 17 13 11 11 11 9 7 6 5 5 8 10 13 16 16 17 18 22 28 33 37 39 41 44 48 49 50
29 27 31 33 35 34 33 34 34 34 35 35 33 31 27 23 19 16 15 15 15 13 10 8 6 4 3 4 6 10 12 13 13 15 19 25 29 32 36 39 41 44 47 50
31 31 32 33 33 34 34 36 34 33 35 37 37 34 30 28 26 21 18 18 18 16 13 11 8 6 4 2 2 6 9 9 10 12 15 20 24 28 32 34 37 41 44 47
29 30 31 33 33 36 35 34 35 34 35 36 33 33 32 30 27 24 23 23 21 19 17 14 12 9 6 5 2 0 5 6 7 9 11 15 19 23 26 30 34 38 42 43
Wind_Direction_850mb
251 233 229 236 244 221 203 199 188 203 271 209 318 343 341 352 2 3 360 356 356 351 1 0 355 356 357 1 8 8 12 15 15 12 14 13 18 19 24 27 31 36 38 41
303 55 350 259 249 228 201 223 251 211 252 131 327 358 8 8 8 4 6 11 14 24 21 4 4 1 360 2 9 11 13 11 10 10 8 12 14 19 24 29 32 38 42 43
260 358 315 292 257 206 156 162 154 210 124 358 326 1 2 11 7 13 12 4 11 10 4 8 6 5 9 15 7 11 14 15 13 11 9 12 16 20 24 29 32 32 38 40
264 12 357 248 328 195 146 152 143 107 126 276 319 340 54 17 19 6 358 356 8 8 1 4 8 12 7 11 15 14 13 12 14 14 14 17 18 21 23 27 32 37 38 38
137 222 293 322 195 142 159 258 178 174 193 285 332 352 160 5 2 357 356 356 3 352 359 8 17 17 15 19 21 22 24 23 20 18 17 16 18 20 26 29 33 35 34 34
80 142 242 234 151 126 128 274 184 189 229 255 346 2 226 340 336 344 355 0 350 355 9 16 22 24 33 40 36 32 27 23 20 21 21 19 21 25 31 35 35 35 34 33
136 238 285 229 156 135 121 244 180 198 236 213 207 221 291 298 312 327 346 340 355 3 24 31 32 31 35 31 29 22 15 15 20 22 23 24 27 32 36 39 37 35 34 33
144 180 280 161 121 177 169 144 186 206 226 218 239 248 257 222 308 324 355 10 24 36 38 41 42 24 24 19 16 10 9 14 19 21 28 32 32 36 38 38 36 34 32 32
186 212 222 188 221 181 171 165 198 224 223 223 237 238 189 234 309 3 13 34 34 26 25 29 24 16 11 12 5 1 2 12 17 22 28 30 33 35 36 35 33 31 30 27
108 208 203 198 194 190 190 204 210 235 195 217 206 186 189 222 240 107 17 37 15 8 12 26 22 13 9 7 2 356 3 12 16 22 24 25 28 31 31 32 30 28 26 25
250 245 208 229 216 206 206 214 204 176 156 161 168 174 213 202 223 289 68 42 3 2 17 18 18 12 9 8 2 1 10 17 22 25 28 26 27 29 31 31 27 26 26 24
226 207 191 228 217 208 204 213 208 180 185 188 194 190 199 205 227 173 115 81 7 28 28 26 26 27 22 19 15 12 18 27 29 30 32 32 32 31 32 32 31 32 31 28
289 220 206 223 181 198 203 202 200 186 193 189 187 206 191 207 206 161 129 130 92 46 37 29 27 30 28 22 19 22 28 31 32 35 35 34 34 36 41 39 34 34 32 29
228 186 170 181 194 198 200 190 193 184 185 192 190 195 197 194 179 150 148 143 91 50 32 40 35 38 31 24 21 27 33 36 36 36 36 36 36 35 35 35 35 37 36 32
196 200 201 191 188 188 192 193 186 202 193 188 193 195 182 177 159 149 151 123 102 69 58 50 46 48 39 32 29 33 38 39 36 38 40 38 37 36 35 33 32 32 34 35
192 205 194 186 182 188 196 191 209 205 210 204 182 173 162 158 150 154 135 117 94 94 77 63 50 50 41 37 35 36 40 41 40 41 41 40 38 37 36 34 33 30 29 28
191 193 198 197 201 201 207 206 203 213 203 179 169 164 160 156 156 150 138 119 111 92 78 65 58 50 45 45 41 38 39 41 43 43 43 40 39 38 37 35 34 32 30 28
219 232 221 234 214 201 196 193 204 205 179 166 162 161 158 156 159 147 134 120 111 95 86 74 63 54 50 52 44 39 41 44 46 45 44 40 39 37 36 35 34 33 31 30
217 230 231 208 194 189 184 186 191 176 166 160 160 155 153 158 158 150 142 133 115 100 87 73 64 60 58 55 44 44 48 49 48 47 44 41 40 38 36 35 34 32 31 30
209 212 199 176 168 175 186 176 171 164 158 158 160 162 159 160 160 157 142 134 134 114 91 79 71 66 62 56 50 55 55 53 50 48 45 43 41 38 36 34 32 31 31 30
195 188 179 170 168 168 165 168 167 164 162 161 163 162 161 157 156 152 143 148 140 114 93 83 76 70 66 62 62 62 59 55 52 49 48 45 41 36 32 30 28 27 28 29
191 187 176 171 172 167 161 166 164 166 162 160 162 169 168 166 163 157 153 153 158 141 117 101 86 76 72 72 70 65 60 57 53 50 47 43 37 32 28 25 24 25 26 26
195 182 177 176 173 170 166 169 167 167 170 170 167 166 169 171 171 166 159 171 162 152 134 113 97 93 89 81 73 67 62 57 52 49 45 40 35 32 30 28 26 25 24 25
195 189 180 179 179 180 178 173 171 169 171 173 167 173 181 182 181 184 179 176 176 171 152 137 128 121 106 85 78 73 65 58 51 46 43 40 36 34 31 29 26 26 26 25
201 197 194 192 191 189 188 185 181 184 185 182 184 184 183 186 185 193 199 192 185 184 169 164 162 159 126 97 85 76 65 55 47 43 40 40 38 34 30 28 27 26 26 25
206 207 205 203 203 199 198 198 198 201 199 194 191 190 192 195 196 198 199 193 194 194 187 183 186 190 182 164 89 82 64 46 39 35 33 36 37 35 30 27 25 25 25 25
211 212 208 208 202 206 212 204 205 210 206 201 199 200 199 201 203 204 199 199 203 205 205 202 200 204 210 218 243 13 72 31 12 18 22 27 33 33 29 26 24 24 24 24